ZHANGHENG 1-01 (CSES)

Last updated on Tue Jun 17 2025 00:03:32 GMT+0000 (Coordinated Universal Time)

1 43194U 18015C 25167.58033242 .00007596 00000+0 34533-3 0 9991 2 43194 97.6503 321.8237 0012641 132.8307 227.3992 15.20967723409073
UTC large
Height (km)
Speed (km/s)
/
Latitude / Longitude
Inclination (degrees)
Orbital Period (minutes)
Azimuth
Elevation
Range (km)
Doppler Factor

Next 0 passes for location: London (51.5072 / 0.1276)

Sorry there are no passes over London.
ZHANGHENG 1-01 (CSES)